TimeCDT,TemperatureF,Dew PointF,Humidity,Sea Level PressureIn,VisibilityMPH,Wind Direction,Wind SpeedMPH,Gust SpeedMPH,PrecipitationIn,Events,Conditions,WindDirDegrees,DateUTC
12:56 AM,75.9,68.0,76,30.06,10.0,Calm,Calm,-,N/A,,Clear,0,2013-09-16 05:56:00
1:56 AM,73.0,68.0,84,30.06,10.0,Calm,Calm,-,N/A,,Clear,0,2013-09-16 06:56:00
2:56 AM,72.0,68.0,87,30.05,10.0,Calm,Calm,-,N/A,,Clear,0,2013-09-16 07:56:00
3:56 AM,70.0,66.9,90,30.06,9.0,Calm,Calm,-,N/A,,Clear,0,2013-09-16 08:56:00
4:56 AM,70.0,66.9,90,30.05,8.0,Calm,Calm,-,N/A,,Clear,0,2013-09-16 09:56:00
5:56 AM,69.1,66.0,90,30.06,7.0,Calm,Calm,-,N/A,,Clear,0,2013-09-16 10:56:00
6:56 AM,70.0,66.9,90,30.07,7.0,North,3.5,-,N/A,,Clear,10,2013-09-16 11:56:00
7:45 AM,-9999,-9999,N/A,-9999,-9999.0,North,-9999.0,-,N/A,Hail,Hail,0,2013-09-16 12:45:00
7:56 AM,75.0,70.0,84,30.09,6.0,Calm,Calm,-,N/A,,Haze,0,2013-09-16 12:56:00
8:56 AM,80.1,71.1,74,30.09,10.0,Calm,Calm,-,N/A,,Clear,0,2013-09-16 13:56:00
9:56 AM,86.0,72.0,63,30.10,10.0,North,4.6,-,N/A,,Clear,360,2013-09-16 14:56:00
10:56 AM,89.1,72.0,57,30.10,10.0,NNE,6.9,-,N/A,,Clear,30,2013-09-16 15:56:00
11:56 AM,88.0,69.1,53,30.09,10.0,NNE,8.1,-,N/A,,Partly Cloudy,20,2013-09-16 16:56:00
12:56 PM,93.0,69.1,45,30.06,10.0,NNE,6.9,-,N/A,,Partly Cloudy,30,2013-09-16 17:56:00
1:56 PM,91.0,69.1,48,30.05,10.0,North,6.9,-,N/A,,Scattered Clouds,10,2013-09-16 18:56:00
2:56 PM,91.9,68.0,45,30.03,10.0,NNE,8.1,-,N/A,,Scattered Clouds,20,2013-09-16 19:56:00
3:56 PM,91.9,68.0,45,30.01,10.0,NE,6.9,-,N/A,,Clear,40,2013-09-16 20:56:00
4:56 PM,91.0,68.0,47,30.01,10.0,North,6.9,-,N/A,,Clear,10,2013-09-16 21:56:00
5:56 PM,89.1,68.0,50,30.01,10.0,North,5.8,-,N/A,,Clear,10,2013-09-16 22:56:00
6:56 PM,84.9,69.1,59,30.03,10.0,Calm,Calm,-,N/A,,Clear,0,2013-09-16 23:56:00
8:56 PM,77.0,71.1,82,30.06,10.0,Calm,Calm,-,N/A,,Mostly Cloudy,0,2013-09-17 01:56:00
9:56 PM,77.0,68.0,74,30.06,10.0,NE,4.6,-,N/A,,Clear,40,2013-09-17 02:56:00
10:56 PM,75.9,66.0,71,30.06,10.0,North,3.5,-,N/A,,Clear,360,2013-09-17 03:56:00